Location: ???
(60.6398°N, 46.9067°E)
Time: 18:27:24
(UTC+00:00)

Cosmos 2360 Rocket - Pass Details

Date: 08 December 2019
Orbit: 833 x 846 km, 71.0° (Epoch: 17 January)

Event Time Altitude Azimuth Distance (km) Brightness Sun altitude
Rises 16:02:45 0° 260° (W) 3,405 6.5 -29.3°
Reaches altitude 10° 16:05:23 10° 269° (W) 2,473 5.5 -29.6°
Maximum altitude 16:10:39 37° 336° (NNW) 1,292 3.3 -30.2°
Enters shadow 16:11:21 36° 353° (N) 1,323 3.2 -30.3°
